This demonstration page uses our WeatherBlox Daily Observations layout. Learn more.

Left ArrowRight Arrow

Hourly Observations for September 16, 2019

Temp ( °F °C ) Dew Point ( °F °C ) Humidity (%) Winds ( mph kmh ) Pressure ( in mb ) Visibility ( mi km ) Precip ( " mm )
12:53 am 00:53 Clear 73 22.8 60 15.6 64 64 S 6 9 29.95 1014 10 16 0.00 0.00
1:53 am 01:53 Clear 74 23.3 59 15 60 60 SSW 8 13 29.95 1014 10 16 0.00 0.00
2:53 am 02:53 Clear 72 22.2 60 15.6 66 66 S 7 11 29.96 1014 10 16 0.00 0.00
3:53 am 03:53 Clear 71 21.7 59 15 66 66 S 8 13 29.95 1014 10 16 0.00 0.00
4:53 am 04:53 Clear 70 21.1 59 15 68 68 S 7 11 29.96 1014 10 16 0.00 0.00
5:53 am 05:53 Clear 69 20.6 59 15 70 70 S 7 11 29.96 1015 10 16 0.00 0.00
6:53 am 06:53 Clear 69 20.6 59 15 70 70 S 8 13 29.97 1015 10 16 0.00 0.00
7:53 am 07:53 Mostly Sunny 69 20.6 60 15.6 73 73 S 8 13 29.98 1015 9 14 0.00 0.00
8:53 am 08:53 Sunny 72 22.2 61 16.1 68 68 S 8 13 29.98 1015 10 16 0.00 0.00
9:53 am 09:53 Sunny 76 24.4 62 16.7 62 62 S 10 17 29.98 1015 10 16 0.00 0.00
10:53 am 10:53 Sunny 78 25.6 62 16.7 58 58 S 13 20 29.98 1015 10 16 0.00 0.00
11:53 am 11:53 Sunny 82 27.8 62 16.7 51 51 S 14 22 29.96 1015 10 16 0.00 0.00
12:53 pm 12:53 Sunny 86 30 62 16.7 45 45 SSW 14 22 29.94 1014 10 16 0.00 0.00
1:53 pm 13:53 Sunny 87 30.6 62 16.7 43 43 SSW 16 26 29.92 1013 10 16 0.00 0.00
2:53 pm 14:53 Sunny 88 31.1 62 16.7 42 42 S 20 31 29.90 1013 10 16 0.00 0.00
3:53 pm 15:53 Sunny 89 31.7 62 16.7 41 41 S 16 26 29.88 1012 10 16 0.00 0.00
4:53 pm 16:53 Mostly Sunny 88 31.1 60 15.6 39 39 S 13 20 29.86 1011 10 16 0.00 0.00
5:53 pm 17:53 Sunny 88 31.1 61 16.1 40 40 S 16 26 29.85 1011 10 16 0.00 0.00
6:53 pm 18:53 Sunny 86 30 60 15.6 42 42 SSE 13 20 29.86 1011 10 16 0.00 0.00
7:53 pm 19:53 Clear 83 28.3 59 15 44 44 SSE 10 17 29.87 1011 10 16 0.00 0.00
8:53 pm 20:53 Clear 81 27.2 61 16.1 51 51 SSE 12 19 29.86 1011 10 16 0.00 0.00
9:53 pm 21:53 Clear 78 25.6 62 16.7 58 58 SSE 14 22 29.88 1012 10 16 0.00 0.00
10:53 pm 22:53 Clear 78 25.6 63 17.2 60 60 S 14 22 29.89 1012 10 16 0.00 0.00
11:53 pm 23:53 Clear 78 25.6 64 17.8 62 62 S 14 22 29.89 1012 10 16 0.00 0.00

Powered by AerisWeather